THOR ABLESTAR DEB, 537

Orbit data source: Space-Track

THOR ABLESTAR DEB, 537 is space debris in LEO originally from a launch on Thu, 29 Jun 1961 UTC launched from the Air Force Eastern Test Range (AFETR). Debris objects in space refer to the collection of defunct objects orbiting the Earth. Examples of debris include non-operational satellites, rocket bodies, and fragments generated from explosions, collisions, or faulty payload assembly.

Loading next visibility...
Identifier
537, 1961-015FW
Orbit
LEO
Country
Flag of USUS
Related business
Manufacturer
Unknown
Mission
Spacecraft
Bus & Motor
Unknown
Mass
Unknown
Launch date (UTC)
1961-06-29 (64 years ago)
Launch vehicle
Unknown
Launch site
Air Force Eastern Test Range (AFETR)
Object type
Payload
Rocket body
Debris
Shape & HBR
Unknown shape, 0.1 m
Radar Cross Section
Small (<0.1 m²)

Expand to show TLE details & history
Last TLE update: 7 hours ago

TLE from 7 hours ago
0 THOR ABLESTAR DEB
1 00537U 61015FW  25346.98271000  .00000632  00000-0  78591-3 0  9999
2 00537  67.2241 186.2211 0168400  70.5004  79.2388 13.64916283989843
Epoch: 2025-12-12T23:35Z
TLE epoch observation values (Epoch: 2025-12-12T23:35:06.144Z)
Latitude
26.01952°
Longitude
-81.23592°
Altitude
998.995 km
Speed
7.365 km/s
True Right ascension
23h 37m 49s
True Declination
25° 53' 19"
Sunlit
Object was in daylight at epoch
Visualization orbit readout
Latitude
Unknown
Longitude
Unknown
Altitude
Unknown
Speed
Unknown
Apparent Right ascension
Unknown
Apparent Declination
Unknown
Sunlit
N/A
Visualization observer readout
Local Sidereal Time
05:23:03
Azimuth
Unknown
Elevation
Unknown
Doppler factor
Unknown
Orbital elements
Apogee altitude
1,140.766 km
Perigee altitude
891.723 km
Semi-major axis
7,394.381 km
Eccentricity
0.01684
Inclination
67.2241°
RAAN
186.2211°
Arg. of periapsis
70.5004°
True anomaly
81.14171°
Mean anomaly
79.2388°
Eccentric anomaly
80.18955°
Mean motion
3.41343 °/min
Orbital period
105.47 mins
BSTAR
0.00078591
Loading maneuver chart data...
Computing Atmospheric mass density...
Loading historical data...
Loading historical data...
Loading historical data...
Loading historical data...
Loading historical data...
Loading historical data...
Loading historical data...

Documentation

Showing up to 5 results
|